Flag for Austria Weather past 2 weeks in Wolfsberg, Carinthia, Austria

Now
30 °F

Mostly cloudy.


Feels Like: 25 °F
Forecast: 25 / 38 °F
Wind: 5 mph from East

Location: Zeltweg

Current Time: Jan 29, 2015 at 7:40:46 AM

Latest Report: Jan 29, 2015 at 6:50 AM


Visibility: 12 mi

Pressure: 29.50 "Hg

Humidity: 69%

Dew point: 21 °F

Location of WolfsbergLocation

Historic Weather in Wolfsberg — Graph

°F

Wolfsberg temperature yesterday

Maximum temperature yesterday: 39 °F (at 1:50 PM)
Minimum temperature yesterday: 18 °F (at 7:20 AM)
Average temperature yesterday: 29 °F

Past Weeks' High & Low Weather Summary

 TemperatureHumidityPressure
High52 °F (Jan 16, 1:50 PM)100% (Jan 14, 5:50 AM)30.21 "Hg (Jan 14, 5:50 AM)
Low12 °F (Jan 14, 6:50 AM)39% (Jan 28, 1:50 PM)29.50 "Hg (Jan 29, 5:50 AM)
Average34 °F79%29.94 "Hg
* Reported Jan 14 5:50 AM — Jan 29 5:50 AM, Wolfsberg, Weather by CustomWeather, © 2014

Note: Actual official high and low records may vary slightly from our data, if they occured in-between our weather recording intervals... More about our weather records

Advertising

Wolfsberg weather history for previous 24 hours

 ConditionsComfort  
Time TempWeatherWind HumidityBarometerVisibility
5:50 AM
Jan 29
28 °FMostly cloudy.8 mph74%29.50 "Hg12 mi
4:50 AM30 °FMostly cloudy.3 mph69%29.56 "Hg12 mi
9:50 PM
Jan 28
21 °FPassing clouds.5 mph93%29.74 "Hg12 mi
8:50 PM25 °FPassing clouds.No wind86%29.80 "Hg12 mi
7:50 PM25 °FPassing clouds.No wind80%29.83 "Hg12 mi
6:50 PM28 °FPassing clouds.No wind74%29.86 "Hg12 mi
5:50 PM28 °FPassing clouds.2 mph74%29.86 "Hg19 mi
4:50 PM34 °FPassing clouds.2 mph56%29.86 "Hg37 mi
4:20 PM36 °FPassing clouds.6 mph52%29.89 "Hg37 mi
3:50 PM37 °FPassing clouds.7 mph48%29.89 "Hg37 mi
3:20 PM37 °FPassing clouds.7 mph45%29.89 "Hg37 mi
2:50 PM37 °FScattered clouds.8 mph48%29.92 "Hg37 mi
2:20 PM37 °FPartly sunny.6 mph45%29.92 "Hg37 mi
1:50 PM39 °FPartly sunny.3 mph39%29.95 "Hg37 mi
1:20 PM37 °FScattered clouds.2 mph45%29.95 "Hg37 mi
12:50 PM36 °FScattered clouds.5 mph52%29.98 "Hg37 mi
12:20 PM37 °FScattered clouds.2 mph52%29.98 "Hg37 mi
11:50 AM36 °FPassing clouds.2 mph60%30.01 "Hg25 mi
11:20 AM32 °FPassing clouds.2 mph64%30.01 "Hg25 mi
10:50 AM32 °FPassing clouds.1 mph69%30.01 "Hg25 mi
10:20 AM30 °FPassing clouds.1 mph75%30.04 "Hg25 mi
9:50 AM28 °FPassing clouds.1 mph80%30.04 "Hg25 mi
9:20 AM25 °FPassing clouds.1 mph86%30.04 "Hg25 mi
8:50 AM23 °FPassing clouds.2 mph93%30.04 "Hg25 mi
8:20 AM19 °FPassing clouds.2 mph100%30.04 "Hg25 mi
7:50 AM19 °FPassing clouds.1 mph100%30.04 "Hg25 mi
7:20 AM18 °FPassing clouds.1 mph100%30.04 "Hg19 mi
Weather by CustomWeather, © 2014

See weather overviewHow to use our weather pages